[[{"header":{"parameterUnit":"m.s-1","parameterCategory":1,"la1":30.2991,"la2":30.254,"lo1":-89.0895,"lo2":-89.0444,"dy":0.0017,"dx":0.0017,"nx":28,"ny":28,"refTime":"2024-03-17T21:00:00:Z","depth":0,"parameterNumber":2,"parameterNumberName":"U-component_of_WINDS"},"data":[0,0,0,0,0,0,0,0,0,0,0,0,0,0,0,0,0,0,0,0,0,0,0,0,0,0,0,0,0,0,0,0,0,0,0,0,0,0,0,0,0,0,0,0,0,0,0,0,0,0,0,0,0,0,0,0,0,0,-1.1486,-1.1486,0,-1.1472,-1.1472,-1.1471,-1.1437,-1.1437,-1.1436,-1.1435,-1.1421,-1.1422,-1.1422,0,0,0,0,0,0,0,0,0,0,0,0,0,-1.1486,-1.1486,-1.1486,-1.1486,-1.1486,-1.1472,-1.1472,-1.1471,-1.1437,-1.1437,-1.1436,-1.1435,-1.1421,-1.1421,-1.1422,0,0,0,0,0,0,0,0,0,0,0,0,0,-1.148,-1.1486,-1.1486,-1.1467,-1.1466,-1.1472,-1.1472,-1.1471,-1.1438,-1.1437,-1.1435,-1.1434,-1.1421,-1.1421,-1.1422,-1.1446,0,0,-1.1423,-1.1423,0,0,0,0,0,0,0,0,-1.1481,-1.148,-1.147,-1.1469,-1.1467,-1.1455,-1.1466,-1.1463,-1.1438,-1.1448,-1.1435,-1.1434,-1.1433,-1.1433,-1.1432,-1.1445,-1.1445,-1.1423,-1.1424,-1.1424,-1.1424,0,0,0,0,0,0,0,-1.1481,-1.1481,-1.1481,-1.147,-1.1468,-1.146,-1.1458,-1.1465,-1.1447,-1.1447,-1.1445,-1.1443,-1.1432,-1.1432,-1.1432,-1.1444,-1.1423,-1.1424,-1.1424,-1.1424,-1.1476,-1.1477,0,0,0,0,0,0,-1.1484,-1.1481,-1.1481,-1.148,-1.1471,-1.1461,-1.1458,-1.146,-1.1447,-1.1444,-1.1444,-1.1442,-1.1432,-1.1431,-1.1431,-1.1458,-1.1424,-1.1424,-1.1424,-1.1475,-1.1476,-1.1477,0,0,0,0,0,0,-1.1484,-1.1484,-1.1482,-1.148,-1.1479,-1.1462,-1.1464,-1.146,-1.146,-1.1445,-1.1441,-1.1447,-1.1431,-1.1431,-1.1442,-1.1457,-1.1424,-1.1425,-1.1473,-1.1475,-1.1477,-1.1512,0,0,0,0,0,0,-1.1484,-1.1485,-1.1493,-1.1481,-1.1479,-1.1493,-1.1465,-1.1461,-1.1461,-1.1457,-1.1447,-1.1444,-1.143,-1.1442,-1.1443,-1.1457,-1.1425,-1.1472,-1.1474,-1.1476,-1.151,-1.1515,-1.152,0,0,0,0,0,-1.1485,-1.1504,-1.1494,-1.1494,-1.149,-1.1494,-1.1493,-1.1477,-1.1462,-1.1471,-1.1461,-1.1444,-1.1455,-1.1443,-1.1444,-1.1459,-1.1471,-1.1474,-1.1476,-1.1508,-1.1514,-1.1519,0,0,0,0,0,0,-1.152,-1.1502,-1.1491,-1.1507,-1.1502,-1.1488,-1.1499,-1.1484,-1.1483,-1.148,-1.146,-1.1458,-1.1473,-1.1467,-1.1454,-1.1481,-1.146,-1.1463,-1.1484,-1.149,-1.1495,-1.1496,-1.1425,0,0,0,0,0,-1.153,-1.1534,-1.1519,-1.1534,-1.1532,-1.1516,-1.1517,-1.1505,-1.1499,-1.1497,-1.1488,-1.1483,-1.1486,-1.1488,-1.1489,-1.1509,-1.1506,-1.1519,-1.1524,-1.1528,-1.1531,-1.1541,-1.1546,-1.1485,-1.1485,-1.1485,0,0,-1.155,-1.1541,-1.1545,-1.1541,-1.1536,-1.1541,-1.1515,-1.1521,-1.1525,-1.1498,-1.1508,-1.1502,-1.1495,-1.1511,-1.1517,-1.1507,-1.1547,-1.1532,-1.1535,-1.1535,-1.1544,-1.155,-1.1555,-1.1487,-1.1487,-1.1487,0,0,-1.1589,-1.1583,-1.1595,-1.159,-1.1582,-1.1571,-1.1574,-1.1562,-1.1557,-1.1567,-1.1546,-1.1551,-1.1555,-1.1551,-1.155,-1.1588,-1.1572,-1.1589,-1.1614,-1.1624,-1.1629,-1.1633,-1.1646,-1.1651,-1.1591,-1.1592,-1.1592,0,-1.1615,-1.1622,-1.1603,-1.1611,-1.161,-1.1586,-1.1598,-1.1594,-1.1588,-1.1588,-1.1576,-1.1581,-1.1575,-1.1589,-1.1598,-1.1598,-1.1601,-1.159,-1.163,-1.1633,-1.1637,-1.1649,-1.1654,-1.1594,-1.1593,-1.1593,-1.1593,0,-1.1654,-1.1659,-1.167,-1.1663,-1.1664,-1.1674,-1.1657,-1.166,-1.1648,-1.1638,-1.1648,-1.164,-1.1639,-1.1642,-1.163,-1.1654,-1.1648,-1.1633,-1.1612,-1.1645,-1.1656,-1.1661,-1.1596,-1.1596,-1.1595,-1.1595,0,0,-1.1715,-1.1698,-1.1702,-1.1699,-1.1689,-1.1692,-1.1701,-1.17,-1.1703,-1.1699,-1.1706,-1.171,-1.1696,-1.1695,-1.1683,-1.1691,-1.1721,-1.1675,-1.1675,-1.1684,-1.1747,-1.1758,-1.1764,-1.1711,-1.1712,-1.1712,-1.1748,0,-1.1751,-1.1766,-1.1749,-1.1767,-1.1771,-1.1748,-1.1756,-1.1751,-1.1742,-1.1744,-1.1735,-1.1738,-1.1719,-1.1718,-1.1726,-1.1716,-1.1733,-1.1713,-1.1717,-1.1718,-1.1719,-1.177,-1.1781,-1.1815,-1.1752,-1.1753,-1.1753,0,-1.1796,-1.1794,-1.1812,-1.18,-1.1801,-1.1808,-1.1806,-1.1809,-1.1802,-1.1795,-1.1793,-1.1778,-1.1786,-1.1766,-1.1777,-1.1763,-1.1764,-1.1759,-1.176,-1.176,-1.1737,-1.177,-1.1825,-1.183,-1.176,-1.1759,-1.1759,0,-1.1838,-1.184,-1.1851,-1.1849,-1.1835,-1.1841,-1.1836,-1.1828,-1.1828,-1.1826,-1.1826,-1.1825,-1.1825,-1.1824,-1.1809,-1.1796,-1.1822,-1.1801,-1.1816,-1.1817,-1.1823,-1.1823,-1.1878,-1.1824,-1.1824,-1.1824,-1.1824,0,-1.188,-1.1892,-1.1869,-1.1876,-1.1889,-1.187,-1.1883,-1.1876,-1.1869,-1.1874,-1.1854,-1.1859,-1.1839,-1.1842,-1.1831,-1.1841,-1.1841,-1.1836,-1.1833,-1.1837,-1.1838,-1.1837,-1.1834,-1.1825,-1.1825,-1.1825,-1.1824,0,-1.193,-1.1915,-1.1925,-1.1911,-1.1908,-1.1918,-1.1907,-1.1912,-1.1902,-1.1909,-1.1909,-1.1893,-1.1896,-1.1881,-1.1881,-1.1873,-1.1889,-1.1882,-1.1891,-1.1889,-1.1905,-1.1904,-1.1962,-1.1969,-1.1911,-1.1912,-1.1912,0,-1.1957,-1.1966,-1.1953,-1.1955,-1.195,-1.1953,-1.1953,-1.1935,-1.1936,-1.1929,-1.1936,-1.1936,-1.1936,-1.1941,-1.193,-1.1929,-1.1922,-1.1943,-1.1922,-1.1926,-1.1922,-1.1921,-1.1922,-1.1947,-1.1948,-1.1948,-1.1949,0,-1.2008,-1.2,-1.2001,-1.1999,-1.1999,-1.1997,-1.1993,-1.1996,-1.1976,-1.1978,-1.198,-1.198,-1.198,-1.1981,-1.1978,-1.1973,-1.1958,-1.1955,-1.1959,-1.1964,-1.1968,-1.1965,-1.1902,-1.1954,-1.1953,-1.1953,-1.1953,-1.1952,-1.2047,-1.2053,-1.2045,-1.2046,-1.2042,-1.2039,-1.2043,-1.2033,-1.2035,-1.2033,-1.2022,-1.2026,-1.2019,-1.2014,-1.201,-1.2013,-1.2003,-1.2009,-1.201,-1.2011,-1.2014,-1.1968,-1.2013,-1.2013,-1.2012,-1.2012,-1.2012,0,-1.2096,-1.209,-1.2091,-1.2086,-1.2087,-1.2073,-1.2068,-1.207,-1.2073,-1.2068,-1.2068,-1.207,-1.2071,-1.206,-1.2059,-1.2063,-1.2056,-1.2064,-1.2063,-1.2062,-1.2023,-1.202,-1.2069,-1.2069,-1.2069,-1.2069,-1.2069,-1.2069,-1.2122,-1.2132,-1.2123,-1.213,-1.2124,-1.2127,-1.2125,-1.2123,-1.2118,-1.2121,-1.2122,-1.2114,-1.2107,-1.2105,-1.2105,-1.2102,-1.2102,-1.2112,-1.2106,-1.207,-1.2065,-1.2059,-1.2056,-1.2112,-1.2112,-1.2144,-1.2145,-1.2145]},{"header":{"parameterUnit":"m.s-1","parameterCategory":1,"la1":30.2991,"la2":30.254,"lo1":-89.0895,"lo2":-89.0444,"dy":0.0017,"dx":0.0017,"nx":28,"ny":28,"refTime":"2024-03-17T21:00:00:Z","depth":0,"parameterNumber":3,"parameterNumberName":"V-component_of_WINDS"},"data":[0,0,0,0,0,0,0,0,0,0,0,0,0,0,0,0,0,0,0,0,0,0,0,0,0,0,0,0,0,0,0,0,0,0,0,0,0,0,0,0,0,0,0,0,0,0,0,0,0,0,0,0,0,0,0,0,0,0,-2.2819,-2.2819,0,-2.2774,-2.2774,-2.2773,-2.2796,-2.2797,-2.2798,-2.2799,-2.2745,-2.2743,-2.274,0,0,0,0,0,0,0,0,0,0,0,0,0,-2.2917,-2.2915,-2.2819,-2.2818,-2.2818,-2.2774,-2.2774,-2.2773,-2.2796,-2.2797,-2.2799,-2.28,-2.2746,-2.2743,-2.274,0,0,0,0,0,0,0,0,0,0,0,0,0,-2.2873,-2.2914,-2.2819,-2.2824,-2.2824,-2.2774,-2.2774,-2.2773,-2.2795,-2.2797,-2.2799,-2.2801,-2.2747,-2.2743,-2.274,-2.268,0,0,-2.2728,-2.2726,0,0,0,0,0,0,0,0,-2.2876,-2.287,-2.2824,-2.2824,-2.2824,-2.2793,-2.2788,-2.2741,-2.2795,-2.2806,-2.2799,-2.2802,-2.2759,-2.2754,-2.2742,-2.2677,-2.2675,-2.2727,-2.2725,-2.2723,-2.2722,0,0,0,0,0,0,0,-2.2879,-2.2872,-2.2801,-2.2823,-2.2823,-2.2826,-2.2822,-2.278,-2.2773,-2.2805,-2.2807,-2.2802,-2.2759,-2.2745,-2.2741,-2.2674,-2.2728,-2.2724,-2.2722,-2.272,-2.2558,-2.2556,0,0,0,0,0,0,-2.2883,-2.2874,-2.2802,-2.28,-2.2855,-2.2823,-2.2818,-2.2801,-2.2773,-2.2771,-2.28,-2.2803,-2.2751,-2.2745,-2.2739,-2.2667,-2.2724,-2.272,-2.2718,-2.256,-2.2558,-2.2556,0,0,0,0,0,0,-2.2885,-2.2876,-2.2804,-2.2837,-2.2829,-2.282,-2.2799,-2.2799,-2.2785,-2.277,-2.2768,-2.2788,-2.2752,-2.2744,-2.2695,-2.2666,-2.2718,-2.2715,-2.2563,-2.256,-2.2557,-2.2524,0,0,0,0,0,0,-2.2887,-2.2877,-2.2855,-2.2837,-2.2827,-2.2763,-2.2798,-2.2797,-2.2779,-2.2783,-2.2757,-2.2755,-2.2753,-2.2701,-2.2691,-2.2661,-2.2712,-2.2565,-2.2561,-2.2558,-2.2528,-2.252,-2.2514,0,0,0,0,0,-2.2891,-2.2846,-2.2854,-2.2845,-2.2801,-2.2762,-2.2756,-2.2757,-2.2777,-2.2755,-2.2745,-2.2756,-2.2671,-2.2695,-2.2685,-2.2654,-2.2567,-2.2562,-2.2558,-2.2531,-2.2522,-2.2514,0,0,0,0,0,0,-2.2858,-2.2844,-2.2853,-2.2801,-2.2783,-2.2766,-2.2738,-2.2747,-2.2721,-2.2724,-2.2724,-2.2718,-2.2667,-2.2655,-2.2683,-2.2594,-2.2622,-2.2615,-2.2604,-2.2596,-2.2589,-2.2593,-2.2708,0,0,0,0,0,-2.2846,-2.2818,-2.2805,-2.2761,-2.2752,-2.2746,-2.2729,-2.2732,-2.2712,-2.2704,-2.269,-2.2668,-2.2636,-2.2615,-2.2585,-2.2526,-2.252,-2.2499,-2.2492,-2.2487,-2.2481,-2.2449,-2.2439,-2.2541,-2.2541,-2.2541,0,0,-2.2818,-2.2807,-2.2788,-2.2754,-2.2741,-2.271,-2.2739,-2.2705,-2.2682,-2.2697,-2.2651,-2.264,-2.2615,-2.2561,-2.2537,-2.255,-2.2452,-2.2481,-2.2477,-2.2474,-2.2443,-2.2433,-2.2425,-2.2538,-2.2539,-2.2539,0,0,-2.2753,-2.2741,-2.2704,-2.269,-2.267,-2.2667,-2.2658,-2.264,-2.2634,-2.2588,-2.26,-2.257,-2.2516,-2.2498,-2.2482,-2.2411,-2.2419,-2.24,-2.2364,-2.2333,-2.2325,-2.2318,-2.2293,-2.2283,-2.2394,-2.2394,-2.2394,0,-2.272,-2.2677,-2.2682,-2.2648,-2.2632,-2.2648,-2.2609,-2.2594,-2.2564,-2.2552,-2.2568,-2.2501,-2.2485,-2.2427,-2.241,-2.2396,-2.2384,-2.2403,-2.2326,-2.2319,-2.2313,-2.2288,-2.2279,-2.2392,-2.2392,-2.2393,-2.2393,0,-2.2638,-2.2608,-2.2579,-2.2554,-2.2534,-2.2498,-2.2496,-2.2475,-2.2479,-2.2474,-2.2426,-2.2408,-2.2376,-2.2362,-2.2364,-2.2304,-2.2313,-2.2327,-2.2355,-2.2301,-2.2278,-2.2269,-2.2389,-2.239,-2.2391,-2.2391,0,0,-2.255,-2.253,-2.2519,-2.2508,-2.2487,-2.2463,-2.2426,-2.2397,-2.2379,-2.2357,-2.2326,-2.228,-2.2294,-2.2275,-2.2276,-2.2249,-2.2194,-2.2266,-2.2266,-2.2254,-2.2126,-2.2115,-2.2104,-2.22,-2.2198,-2.2197,-2.2128,0,-2.2484,-2.2424,-2.2428,-2.2369,-2.2341,-2.2356,-2.2324,-2.2307,-2.23,-2.2273,-2.2265,-2.2233,-2.2254,-2.2243,-2.2217,-2.2206,-2.2168,-2.2211,-2.2168,-2.2167,-2.2175,-2.2092,-2.2081,-2.2017,-2.2119,-2.2117,-2.2116,0,-2.2398,-2.2378,-2.2318,-2.2303,-2.2291,-2.2262,-2.2236,-2.2211,-2.2191,-2.2188,-2.2168,-2.2174,-2.2135,-2.2163,-2.2108,-2.2138,-2.212,-2.2112,-2.211,-2.2106,-2.2138,-2.2086,-2.1996,-2.1987,-2.2102,-2.2103,-2.2104,0,-2.2341,-2.2297,-2.2256,-2.2246,-2.2227,-2.2207,-2.2197,-2.218,-2.2162,-2.2138,-2.2126,-2.2097,-2.208,-2.2056,-2.2053,-2.2074,-2.1997,-2.2026,-2.1993,-2.1993,-2.1975,-2.1977,-2.1882,-2.1964,-2.1964,-2.1965,-2.1965,0,-2.2266,-2.2229,-2.223,-2.2205,-2.2163,-2.2167,-2.2125,-2.2117,-2.2101,-2.2073,-2.2083,-2.2055,-2.2053,-2.2024,-2.202,-2.1975,-2.1967,-2.1963,-2.1962,-2.1962,-2.1963,-2.195,-2.1955,-2.1962,-2.1963,-2.1963,-2.1964,0,-2.2194,-2.2194,-2.2151,-2.2137,-2.2133,-2.2103,-2.209,-2.2065,-2.206,-2.2024,-2.2016,-2.2007,-2.1974,-2.1969,-2.1928,-2.1926,-2.1872,-2.1876,-2.188,-2.188,-2.1847,-2.185,-2.1741,-2.1727,-2.1819,-2.1818,-2.1817,0,-2.2147,-2.2119,-2.2104,-2.2087,-2.2078,-2.205,-2.2033,-2.2036,-2.2017,-2.1993,-2.197,-2.1939,-2.1913,-2.1859,-2.1847,-2.1816,-2.1819,-2.1783,-2.1815,-2.1815,-2.1819,-2.182,-2.1817,-2.1777,-2.1776,-2.1775,-2.1775,0,-2.2063,-2.2065,-2.2041,-2.2018,-2.1998,-2.1979,-2.1961,-2.1946,-2.1946,-2.1924,-2.1892,-2.1872,-2.1833,-2.1801,-2.177,-2.1758,-2.1765,-2.1765,-2.1756,-2.1755,-2.1759,-2.1756,-2.1863,-2.1767,-2.1768,-2.1769,-2.1769,-2.1769,-2.2002,-2.1978,-2.1964,-2.1938,-2.1925,-2.1909,-2.1885,-2.1878,-2.1853,-2.1823,-2.1825,-2.1789,-2.1769,-2.173,-2.1715,-2.1686,-2.1697,-2.1683,-2.168,-2.1676,-2.1673,-2.1764,-2.168,-2.168,-2.168,-2.168,-2.1681,0,-2.1918,-2.1911,-2.1887,-2.1863,-2.1842,-2.1854,-2.1835,-2.1816,-2.1785,-2.1768,-2.1744,-2.1706,-2.1675,-2.1662,-2.1631,-2.161,-2.1612,-2.1601,-2.1603,-2.1599,-2.1665,-2.1676,-2.16,-2.16,-2.16,-2.16,-2.16,-2.16,-2.1872,-2.1834,-2.1834,-2.1788,-2.1779,-2.1747,-2.1735,-2.1719,-2.1705,-2.1664,-2.164,-2.1633,-2.1616,-2.1584,-2.1556,-2.1552,-2.154,-2.1527,-2.1525,-2.1587,-2.1595,-2.1603,-2.1613,-2.1525,-2.1525,-2.1462,-2.1462,-2.1461]}]]